Location: Norwich
(42.5310°N, 75.5240°W)
Time: 13:11:49
(UTC-04:00)

Envisat - Pass Details

Date: 28 March 2019
Orbit: 764 x 766 km, 98.2° (Epoch: 19 April)

Event Time Altitude Azimuth Distance (km) Brightness Sun altitude
Rises 20:55:19 0° 211° (SSW) 3,219 6.3 -17.3°
Reaches altitude 10° 20:58:30 10° 232° (SW) 2,299 5.9 -17.8°
Maximum altitude 21:01:34 16° 270° (W) 1,917 6.0 -18.3°
Drops below altitude 10° 21:04:39 10° 307° (NW) 2,309 6.6 -18.9°
Sets 21:07:54 0° 329° (NNW) 3,240 7.1 -19.4°
